Location: Pl�tzky
(52.0521°N, 11.8020°E)
Time: 18:31:58
(UTC+00:00)

Cosmos 1980 Rocket - Pass Details

Date: 22 November 2019
Orbit: 828 x 851 km, 71.0° (Epoch: 11 December)

Event Time Altitude Azimuth Distance (km) Brightness Sun altitude
Rises 18:31:06 0° 244° (WSW) 3,402 6.2 -29.9°
Reaches altitude 10° 18:33:48 10° 254° (WSW) 2,473 5.4 -30.3°
Maximum altitude 18:38:52 32° 317° (NW) 1,421 3.7 -31.1°
Enters shadow 18:40:54 26° 354° (N) 1,640 3.7 -31.4°
